Weather History for Torrington, WY

Change the Weather History Date:

Sunday, February 9, 2014

  Actual Average Record
Temperature  
Mean Temperature 8 °F 30 °F  
Max Temperature 11 °F 44 °F 61 °F (2000)
Min Temperature 5 °F 16 °F -15 °F (2011)
Degree Days  
Heating Degree Days 57 35  
Month to date heating degree days 535 319  
Since 1 July heating degree days 4389 4214  
Cooling Degree Days 0 0  
Month to date cooling degree days 0 0  
Year to date cooling degree days 0 0  
Moisture  
Dew Point 4 °F    
Average Humidity 86    
Maximum Humidity 91    
Minimum Humidity 80    
Precipitation  
Precipitation 0.11 in 0.01 in 0.11 in (2014)
Month to date precipitation 0.23 0.10  
Year to date precipitation 0.43 0.36  
Sea Level Pressure  
Sea Level Pressure 30.19 in    
Wind  
Wind Speed 10 mph (East)    
Max Wind Speed 15 mph    
Max Gust Speed 17 mph    
Visibility 5 miles    
Events Snow    
T = Trace of Precipitation, MM = Missing Value Source: NWS Daily Summary

Daily Weather History Graph

Daily Weather History Graph

Search for Another Location

Airport:

Trip Planner

Search our weather history database for the weather conditions in past years. The results will help you decide how hot, cold, wet, or windy it might be!

Date:

Astronomy

Feb. 09, 2014 Rise Set
Actual Time 7:00 AM MST 5:21 PM MST
Civil Twilight 6:31 AM MST 5:50 PM MST
Nautical Twilight 5:58 AM MST 6:23 PM MST
Astronomical Twilight 5:25 AM MST 6:56 PM MST
Moon 1:02 PM MST (2/9) 3:09 AM MST (2/9)
Length of Visible Light 11h 19m
Length of Day
10h 21m
Waxing Gibbous, 77% of the Moon is Illuminated
Feb 9
Waxing Gibbous
Feb 14
Full
Feb 22
Last Quarter
Mar 1
New
Mar 8
First Quarter

Hourly Weather History & Observations

Time (MST) Temp. Windchill Dew Point Humidity Pressure Visibility Wind Dir Wind Speed Gust Speed Precip Events Conditions
12:29 AM 10.0 °F -0.9 °F 7.0 °F 87% 30.09 in 1.8 mi NE 6.9 mph - 0.00 in Snow Light Snow
12:53 AM 10.0 °F -2.9 °F 7.0 °F 87% 30.24 in 1.8 mi NE 9.2 mph - 0.00 in Snow Light Snow
1:27 AM 10.0 °F -1.9 °F 6.1 °F 84% 30.07 in 2.0 mi East 8.1 mph - 0.01 in Snow Light Snow
1:48 AM 10.4 °F -1.5 °F 6.8 °F 85% 30.08 in 1.5 mi ENE 8.1 mph - 0.01 in Snow Light Snow
1:53 AM 10.0 °F -1.9 °F 6.1 °F 84% 30.23 in 1.2 mi ENE 8.1 mph - 0.01 in Snow Light Snow
2:16 AM 10.0 °F 0.4 °F 7.0 °F 87% 30.07 in 0.8 mi East 5.8 mph - 0.01 in Snow Light Snow
2:32 AM 9.0 °F -3.2 °F 6.1 °F 88% 30.06 in 1.0 mi ENE 8.1 mph - 0.02 in Snow Light Snow
2:49 AM 8.6 °F -3.7 °F 6.8 °F 92% 30.06 in 0.8 mi East 8.1 mph - 0.03 in Snow Light Snow
2:53 AM 9.0 °F -3.2 °F 6.1 °F 88% 30.22 in 0.8 mi East 8.1 mph - 0.03 in Snow Light Snow
3:53 AM 8.1 °F -4.3 °F 5.0 °F 87% 30.22 in 1.2 mi ESE 8.1 mph - 0.03 in Snow Light Snow
4:01 AM 8.1 °F -4.3 °F 5.0 °F 87% 30.05 in 1.8 mi ESE 8.1 mph - 0.00 in Snow Light Snow
4:09 AM 8.1 °F -4.3 °F 5.0 °F 87% 30.04 in 2.5 mi ESE 8.1 mph - 0.00 in Snow Light Snow
4:14 AM 8.1 °F -4.3 °F 5.0 °F 87% 30.04 in 3.0 mi ESE 8.1 mph - 0.01 in Snow Light Snow
4:36 AM 8.1 °F -6.2 °F 5.0 °F 87% 30.04 in 2.5 mi ESE 10.4 mph - 0.01 in Snow Light Snow
4:53 AM 8.1 °F -6.2 °F 3.9 °F 83% 30.21 in 2.0 mi East 10.4 mph - 0.02 in Snow Light Snow
5:19 AM 8.1 °F -5.3 °F 5.0 °F 87% 30.04 in 4.0 mi ESE 9.2 mph - 0.00 in   Overcast
5:53 AM 8.1 °F -7.0 °F 3.9 °F 83% 30.21 in 3.0 mi East 11.5 mph - 0.00 in Snow Light Snow
6:42 AM 8.1 °F -4.3 °F 3.9 °F 83% 30.04 in 3.0 mi East 8.1 mph - 0.01 in Snow Light Snow
6:53 AM 7.0 °F -7.5 °F 3.9 °F 87% 30.25 in 2.5 mi ENE 10.4 mph - 0.01 in Snow Light Snow
7:11 AM 7.0 °F -9.1 °F 3.0 °F 84% 30.05 in 1.0 mi East 12.7 mph - 0.00 in Snow Light Snow
7:39 AM 7.0 °F -7.5 °F 3.0 °F 84% 30.07 in 2.5 mi ENE 10.4 mph - 0.00 in Snow Light Snow
7:51 AM 6.8 °F -7.8 °F 3.2 °F 85% 30.09 in 4.0 mi ENE 10.4 mph - 0.00 in   Overcast
7:53 AM 7.0 °F -7.5 °F 3.0 °F 84% 30.29 in 4.0 mi East 10.4 mph - 0.00 in   Overcast
8:53 AM 7.0 °F -6.6 °F 1.9 °F 80% 30.31 in 7.0 mi East 9.2 mph - 0.00 in Snow Light Snow
9:53 AM 7.0 °F -9.1 °F 3.0 °F 84% 30.30 in 6.0 mi East 12.7 mph - 0.00 in Snow Light Snow
10:53 AM 8.1 °F -7.7 °F 3.0 °F 80% 30.30 in 5.0 mi East 12.7 mph - 0.00 in Snow Light Snow
11:37 AM 8.1 °F -7.0 °F 3.0 °F 80% 30.08 in 6.0 mi East 11.5 mph - 0.00 in Snow Light Snow
11:53 AM 8.1 °F -7.7 °F 3.0 °F 80% 30.29 in 6.0 mi East 12.7 mph - 0.00 in Snow Light Snow
12:53 PM 8.1 °F -7.7 °F 3.0 °F 80% 30.28 in 5.0 mi East 12.7 mph - 0.00 in Snow Light Snow
1:53 PM 7.0 °F -7.5 °F 1.9 °F 80% 30.27 in 10.0 mi East 10.4 mph - 0.01 in   Overcast
2:53 PM 8.1 °F -7.0 °F 3.0 °F 80% 30.27 in 9.0 mi East 11.5 mph - N/A   Overcast
3:42 PM 8.1 °F -7.0 °F 3.0 °F 80% 30.06 in 10.0 mi East 11.5 mph - N/A   Overcast
3:53 PM 8.1 °F -7.0 °F 3.0 °F 80% 30.28 in 10.0 mi ESE 11.5 mph - N/A   Mostly Cloudy
4:53 PM 7.0 °F -7.5 °F 1.9 °F 80% 30.30 in 10.0 mi East 10.4 mph - N/A   Partly Cloudy
5:15 PM 7.0 °F -7.5 °F 1.9 °F 80% 30.09 in 9.0 mi East 10.4 mph - N/A   Mostly Cloudy
5:38 PM 6.1 °F -8.7 °F 1.9 °F 83% 30.11 in 10.0 mi East 10.4 mph - N/A   Overcast
5:51 PM 6.8 °F -4.8 °F 1.4 °F 79% 30.12 in 8.0 mi East 6.9 mph - N/A   Overcast
5:53 PM 7.0 °F -5.7 °F 3.0 °F 84% 30.35 in 8.0 mi East 8.1 mph - N/A   Overcast
6:53 PM 6.1 °F -6.8 °F 1.9 °F 83% 30.36 in 10.0 mi ENE 8.1 mph - N/A   Overcast
7:16 PM 7.0 °F -4.5 °F 3.0 °F 84% 30.13 in 10.0 mi ENE 6.9 mph - N/A   Overcast
7:23 PM 7.0 °F -6.6 °F 3.0 °F 84% 30.13 in 10.0 mi ENE 9.2 mph - N/A   Overcast
7:53 PM 7.0 °F -5.7 °F 3.0 °F 84% 30.36 in 10.0 mi East 8.1 mph - N/A   Overcast
8:53 PM 7.0 °F -3.3 °F 3.0 °F 84% 30.35 in 10.0 mi ESE 5.8 mph - N/A   Overcast
9:53 PM 7.0 °F -4.5 °F 3.9 °F 87% 30.35 in 10.0 mi SE 6.9 mph - N/A   Overcast
10:53 PM 7.0 °F -4.5 °F 3.9 °F 87% 30.34 in 10.0 mi ESE 6.9 mph - N/A   Overcast
11:53 PM 5.0 °F -5.6 °F 1.9 °F 87% 30.33 in 10.0 mi ESE 5.8 mph - N/A   Mostly Cloudy